Location: Brede
(50.9167°N, 0.6000°E)
Time: 02:43:41
(UTC+00:00)

SJ 16-02 - Pass Details

Date: 08 August 2020
Orbit: 607 x 616 km, 75.0° (Epoch: 27 September)

Event Time Altitude Azimuth Distance (km) Brightness Sun altitude
Exits shadow 03:17:06 14° 242° (WSW) 1,703 3.0 -10.8°
Maximum altitude 03:20:21 34° 302° (WNW) 1,022 2.3 -10.4°
Drops below altitude 10° 03:24:24 10° 8° (N) 1,981 4.7 -10.0°
Sets 03:26:49 0° 18° (NNE) 2,889 5.9 -9.7°
